[[{"header":{"parameterUnit":"m.s-1","parameterCategory":1,"la1":30.2991,"la2":30.254,"lo1":-89.0895,"lo2":-89.0444,"dy":0.0017,"dx":0.0017,"nx":28,"ny":28,"refTime":"2023-07-22T03:00:00:Z","depth":0,"parameterNumber":2,"parameterNumberName":"U-component_of_WINDS"},"data":[0,0,0,0,0,0,0,0,0,0,0,0,0,0,0,0,0,0,0,0,0,0,0,0,0,0,0,0,0,0,0,0,0,0,0,0,0,0,0,0,0,0,0,0,0,0,0,0,0,0,0,0,0,0,0,0,0,0,2.5602,2.5604,0,2.582,2.5822,2.5824,2.586,2.5859,2.5857,2.5855,2.6083,2.609,2.6098,0,0,0,0,0,0,0,0,0,0,0,0,0,2.5222,2.5229,2.5601,2.5604,2.5607,2.5819,2.5822,2.5825,2.5861,2.5858,2.5856,2.5854,2.608,2.6089,2.6099,0,0,0,0,0,0,0,0,0,0,0,0,0,2.5408,2.5231,2.5601,2.565,2.5657,2.5819,2.5822,2.5826,2.5861,2.5858,2.5856,2.5853,2.6077,2.6088,2.61,2.6229,0,0,2.6136,2.6141,0,0,0,0,0,0,0,0,2.5398,2.5422,2.564,2.5647,2.5655,2.581,2.5772,2.5961,2.5862,2.5784,2.5855,2.5852,2.5994,2.6013,2.606,2.624,2.625,2.6137,2.6144,2.6149,2.6152,0,0,0,0,0,0,0,2.5385,2.5413,2.5688,2.5643,2.5652,2.5663,2.5687,2.5808,2.5903,2.579,2.5793,2.5819,2.5998,2.6049,2.6066,2.6253,2.6137,2.6147,2.6154,2.6159,2.6553,2.6556,0,0,0,0,0,0,2.5362,2.5402,2.5681,2.5694,2.5516,2.5672,2.5699,2.5763,2.5901,2.592,2.5821,2.5819,2.603,2.6052,2.6074,2.6236,2.6149,2.616,2.6167,2.655,2.6554,2.6557,0,0,0,0,0,0,2.5354,2.5387,2.5672,2.5549,2.5586,2.5682,2.5754,2.5769,2.5819,2.5924,2.5942,2.5855,2.6029,2.6057,2.6191,2.6244,2.6165,2.6176,2.6546,2.6551,2.6556,2.656,0,0,0,0,0,0,2.5343,2.5384,2.5432,2.555,2.5593,2.5783,2.5757,2.5775,2.5839,2.5839,2.5961,2.5978,2.6029,2.6173,2.6202,2.6259,2.6185,2.6541,2.6548,2.6554,2.6555,2.6564,2.6572,0,0,0,0,0,2.5329,2.5425,2.5434,2.5468,2.5655,2.5786,2.5811,2.5866,2.5843,2.5894,2.5962,2.5974,2.6233,2.6186,2.622,2.628,2.6538,2.6546,2.6554,2.6551,2.6562,2.6572,0,0,0,0,0,0,2.5312,2.5441,2.5453,2.5589,2.5676,2.5792,2.5857,2.5875,2.5972,2.5968,2.6034,2.6061,2.6191,2.6249,2.6194,2.6414,2.6384,2.6399,2.6371,2.6383,2.6391,2.6374,2.6195,0,0,0,0,0,2.5323,2.5417,2.5526,2.5636,2.5679,2.5761,2.582,2.5855,2.5948,2.5986,2.6063,2.6155,2.6257,2.6323,2.6423,2.6564,2.6592,2.6623,2.6631,2.6637,2.665,2.6731,2.6746,2.6583,2.6583,2.6583,0,0,2.5349,2.5432,2.5487,2.5635,2.5706,2.5804,2.5792,2.5895,2.5969,2.6002,2.6132,2.6193,2.63,2.6438,2.6503,2.649,2.6701,2.6647,2.6652,2.6661,2.674,2.6755,2.6769,2.6588,2.6587,2.6586,0,0,2.5446,2.5517,2.5617,2.5689,2.5798,2.5852,2.5876,2.599,2.6031,2.6162,2.619,2.628,2.6454,2.653,2.6591,2.6719,2.6735,2.675,2.6794,2.6873,2.6885,2.6897,2.6944,2.696,2.6762,2.6762,2.6762,0,2.5464,2.5611,2.5667,2.577,2.5835,2.5869,2.5972,2.604,2.6176,2.6221,2.6205,2.6426,2.6501,2.6658,2.6689,2.6737,2.6769,2.6736,2.6879,2.6891,2.6903,2.6949,2.6966,2.6763,2.6763,2.6763,2.6763,0,2.5629,2.5731,2.5799,2.5929,2.6002,2.6105,2.6178,2.6246,2.6275,2.6331,2.6467,2.6557,2.6677,2.6717,2.6746,2.6879,2.6869,2.6865,2.6836,2.6919,2.6963,2.6981,2.6765,2.6764,2.6764,2.6764,0,0,2.5719,2.5879,2.5904,2.5964,2.6087,2.6168,2.6274,2.639,2.6447,2.6541,2.6632,2.678,2.6778,2.6848,2.6887,2.6955,2.7053,2.6944,2.6948,2.6962,2.7208,2.7209,2.7229,2.7065,2.7068,2.7071,2.7199,0,2.5831,2.6018,2.6072,2.6231,2.6327,2.6362,2.6454,2.6541,2.6597,2.6689,2.6752,2.6856,2.6845,2.6887,2.6957,2.7026,2.7103,2.7018,2.7152,2.7157,2.7124,2.7252,2.7254,2.737,2.7216,2.7219,2.7221,0,2.5985,2.6081,2.6249,2.6362,2.6405,2.6486,2.6598,2.6684,2.6785,2.6822,2.69,2.6934,2.7048,2.7013,2.7172,2.7113,2.7171,2.7214,2.722,2.7235,2.7194,2.7271,2.7408,2.7425,2.7249,2.7247,2.7245,0,2.6035,2.6206,2.633,2.638,2.6515,2.6572,2.6631,2.6728,2.6795,2.6894,2.6939,2.705,2.7111,2.7197,2.7261,2.7229,2.7416,2.7386,2.7451,2.7449,2.7488,2.7485,2.7637,2.7525,2.7525,2.7524,2.7524,0,2.6154,2.6256,2.6354,2.6429,2.6545,2.6608,2.6722,2.6783,2.687,2.696,2.6998,2.7082,2.716,2.7256,2.7307,2.7432,2.7459,2.7493,2.7505,2.749,2.7486,2.7529,2.7523,2.7529,2.7528,2.7527,2.7526,0,2.6229,2.6298,2.6435,2.6552,2.6584,2.6664,2.6765,2.6842,2.69,2.7013,2.7044,2.7136,2.725,2.7322,2.7468,2.7502,2.764,2.765,2.7606,2.7612,2.7673,2.7667,2.7859,2.7888,2.7756,2.7757,2.7758,0,2.63,2.6379,2.6505,2.6567,2.6626,2.6726,2.6795,2.6861,2.6932,2.7054,2.7116,2.7233,2.7329,2.7511,2.7592,2.7705,2.7717,2.7777,2.7735,2.7717,2.772,2.7714,2.7724,2.7784,2.7785,2.7786,2.7787,0,2.6419,2.6451,2.6547,2.6657,2.6738,2.6828,2.6918,2.6968,2.705,2.7128,2.7245,2.732,2.7469,2.7585,2.7705,2.7768,2.7793,2.78,2.7821,2.7806,2.7778,2.7795,2.7626,2.7795,2.7794,2.7794,2.7793,2.7793,2.6495,2.6568,2.6668,2.6776,2.685,2.6934,2.7012,2.708,2.7179,2.7304,2.7338,2.7461,2.7563,2.7726,2.7792,2.7891,2.7883,2.7913,2.7921,2.7928,2.7929,2.7762,2.7913,2.7913,2.7913,2.7913,2.7913,0,2.6617,2.6684,2.6782,2.6907,2.6992,2.7007,2.7108,2.7179,2.7286,2.7378,2.7473,2.7609,2.7722,2.7813,2.7931,2.7992,2.8007,2.8021,2.8017,2.8032,2.7929,2.7899,2.8008,2.8008,2.8008,2.8008,2.8008,2.8008,2.6691,2.6815,2.6858,2.7021,2.7088,2.7207,2.7264,2.7343,2.7417,2.7567,2.7661,2.7719,2.7812,2.7937,2.8042,2.8067,2.8109,2.8121,2.8147,2.805,2.8039,2.8029,2.8001,2.8129,2.813,2.8243,2.8244,2.8244]},{"header":{"parameterUnit":"m.s-1","parameterCategory":1,"la1":30.2991,"la2":30.254,"lo1":-89.0895,"lo2":-89.0444,"dy":0.0017,"dx":0.0017,"nx":28,"ny":28,"refTime":"2023-07-22T03:00:00:Z","depth":0,"parameterNumber":3,"parameterNumberName":"V-component_of_WINDS"},"data":[0,0,0,0,0,0,0,0,0,0,0,0,0,0,0,0,0,0,0,0,0,0,0,0,0,0,0,0,0,0,0,0,0,0,0,0,0,0,0,0,0,0,0,0,0,0,0,0,0,0,0,0,0,0,0,0,0,0,7.8091,7.8093,0,7.8225,7.8227,7.8228,7.8181,7.8178,7.8175,7.8172,7.83,7.8306,7.8312,0,0,0,0,0,0,0,0,0,0,0,0,0,7.7783,7.7789,7.8091,7.8093,7.8094,7.8225,7.8227,7.8228,7.8181,7.8178,7.8174,7.8171,7.8298,7.8305,7.8313,0,0,0,0,0,0,0,0,0,0,0,0,0,7.7916,7.7791,7.8091,7.8087,7.8088,7.8224,7.8227,7.8229,7.8182,7.8178,7.8173,7.8169,7.8296,7.8305,7.8314,7.8459,0,0,7.8342,7.8346,0,0,0,0,0,0,0,0,7.7909,7.7928,7.8086,7.8087,7.8089,7.8182,7.8165,7.8306,7.8183,7.8146,7.8172,7.8167,7.8264,7.8275,7.831,7.8465,7.8471,7.8343,7.8348,7.8352,7.8355,0,0,0,0,0,0,0,7.79,7.7922,7.8144,7.8088,7.809,7.8074,7.8089,7.8191,7.8228,7.8149,7.8146,7.8163,7.8264,7.8301,7.8312,7.8473,7.8343,7.8351,7.8356,7.836,7.8749,7.8753,0,0,0,0,0,0,7.7891,7.7914,7.8139,7.8148,7.7986,7.8084,7.8099,7.8156,7.8227,7.8233,7.8166,7.816,7.8287,7.8302,7.8317,7.8489,7.8352,7.8361,7.8366,7.8744,7.875,7.8755,0,0,0,0,0,0,7.7885,7.7912,7.8134,7.803,7.8057,7.8094,7.8158,7.8161,7.8199,7.824,7.8245,7.8199,7.8285,7.8304,7.8424,7.8493,7.8365,7.8373,7.8738,7.8746,7.8752,7.8836,0,0,0,0,0,0,7.7876,7.791,7.7969,7.8032,7.8063,7.8243,7.8162,7.8167,7.8216,7.8209,7.8272,7.8278,7.8283,7.841,7.8433,7.8503,7.8381,7.8732,7.8742,7.875,7.8827,7.8845,7.886,0,0,0,0,0,7.7865,7.7986,7.7972,7.7999,7.8138,7.8247,7.8264,7.827,7.8222,7.8279,7.8304,7.8276,7.8482,7.8423,7.8448,7.8522,7.8728,7.8739,7.8749,7.8819,7.8841,7.886,0,0,0,0,0,0,7.7927,7.7994,7.7979,7.8125,7.8181,7.8239,7.8311,7.8294,7.8362,7.8352,7.8353,7.8368,7.8491,7.8518,7.8452,7.8664,7.8597,7.8613,7.8642,7.8663,7.8679,7.8669,7.8388,0,0,0,0,0,7.7958,7.8044,7.8097,7.8219,7.8249,7.8275,7.8323,7.8322,7.8379,7.8402,7.8436,7.849,7.8565,7.8616,7.8689,7.8831,7.8841,7.8893,7.891,7.8924,7.8937,7.901,7.9033,7.879,7.879,7.879,0,0,7.8022,7.8069,7.8123,7.8233,7.8276,7.8361,7.8295,7.8389,7.8451,7.8415,7.853,7.8557,7.8616,7.8747,7.8806,7.8774,7.9006,7.8937,7.8948,7.8954,7.9023,7.9046,7.9067,7.8798,7.8796,7.8795,0,0,7.8181,7.8228,7.8333,7.8378,7.8445,7.8462,7.8487,7.8547,7.8564,7.8681,7.8654,7.8726,7.8859,7.8901,7.8939,7.9111,7.9086,7.9135,7.9221,7.9292,7.9311,7.9328,7.9386,7.9407,7.9148,7.9149,7.9149,0,7.8251,7.8383,7.8389,7.8485,7.8532,7.8505,7.8609,7.8651,7.8737,7.8768,7.8731,7.8895,7.8933,7.9071,7.9113,7.9147,7.9172,7.9127,7.9309,7.9326,7.9341,7.9396,7.9419,7.9154,7.9153,7.9153,7.9152,0,7.8463,7.8554,7.8631,7.8717,7.8772,7.8872,7.8889,7.8944,7.8938,7.8957,7.9073,7.9117,7.9197,7.923,7.9224,7.9366,7.9344,7.9308,7.924,7.937,7.9421,7.9443,7.9161,7.916,7.9158,7.9157,0,0,7.8666,7.8754,7.8781,7.8818,7.8889,7.8957,7.9053,7.9133,7.9178,7.9238,7.9315,7.9427,7.9393,7.9437,7.9435,7.9498,7.9627,7.9454,7.9455,7.9482,7.9782,7.9807,7.9832,7.9611,7.9615,7.9618,7.9776,0,7.8829,7.9002,7.9009,7.9164,7.9245,7.9219,7.9302,7.9352,7.9371,7.944,7.9459,7.9538,7.9489,7.9515,7.9576,7.9599,7.9687,7.9587,7.9679,7.9682,7.9664,7.986,7.9887,8.0034,7.9796,7.98,7.9802,0,7.9044,7.9111,7.9276,7.9331,7.9365,7.944,7.9512,7.958,7.9633,7.9642,7.9691,7.9679,7.9772,7.9703,7.9829,7.9761,7.9798,7.9814,7.982,7.9828,7.9749,7.987,8.0081,8.0103,7.9835,7.9832,7.983,0,7.9172,7.9304,7.9418,7.9451,7.952,7.9572,7.9602,7.9652,7.9699,7.976,7.9789,7.986,7.9899,7.9952,7.9958,7.9907,8.0083,8.0015,8.009,8.009,8.0127,8.0125,8.0346,8.0155,8.0155,8.0154,8.0154,0,7.9352,7.9453,7.9476,7.9546,7.9656,7.9661,7.9769,7.9794,7.9839,7.991,7.9891,7.9957,7.9962,8.0029,8.0034,8.0135,8.0153,8.016,8.016,8.0162,8.016,8.0185,8.0174,8.016,8.0159,8.0158,8.0157,0,7.9514,7.9534,7.9657,7.9711,7.9727,7.9806,7.985,7.9915,7.9932,8.0022,8.0043,8.0068,8.0146,8.0158,8.0248,8.0251,8.0372,8.0362,8.0355,8.0353,8.0426,8.0418,8.067,8.0701,8.0492,8.0494,8.0496,0,7.9627,7.9704,7.9767,7.9815,7.9848,7.9926,7.9973,7.9979,8.0028,8.0094,8.015,8.0226,8.0287,8.0411,8.0436,8.0504,8.0494,8.0577,8.0504,8.0501,8.0492,8.0487,8.0493,8.0591,8.0593,8.0595,8.0596,0,7.9825,7.983,7.9901,7.9975,8.0033,8.0091,8.0145,8.0184,8.0196,8.0252,8.0333,8.038,8.0473,8.0547,8.0614,8.064,8.0619,8.0619,8.064,8.0641,8.0633,8.0636,8.0391,8.0613,8.0611,8.061,8.0609,8.0609,7.9964,8.003,8.0084,8.0162,8.0204,8.0254,8.0317,8.0342,8.041,8.0488,8.0486,8.0573,8.062,8.0709,8.074,8.0805,8.0778,8.0808,8.0816,8.0823,8.0829,8.0624,8.0818,8.0817,8.0817,8.0816,8.0816,0,8.0158,8.0191,8.0264,8.0341,8.0401,8.0379,8.0437,8.0488,8.0566,8.0613,8.0674,8.0764,8.0835,8.0865,8.0933,8.098,8.0972,8.0997,8.0993,8.0999,8.0851,8.0825,8.1003,8.1003,8.1003,8.1003,8.1003,8.1003,8.0266,8.0376,8.0387,8.0515,8.0546,8.0634,8.0668,8.0713,8.075,8.0853,8.0913,8.0932,8.0971,8.1042,8.1105,8.1111,8.1136,8.1166,8.1168,8.1029,8.101,8.0992,8.0967,8.1172,8.1172,8.131,8.1312,8.1313]}]]